Location: Apeadero de Los Molinos-Guadarrama
(40.7091°N, 4.0689°W)
Time: 09:53:55
(UTC+00:00)

SJ 16-02 - Pass Details

Date: 14 May 2021
Orbit: 606 x 616 km, 75.0° (Epoch: 18 June)

Event Time Altitude Azimuth Distance (km) Brightness Sun altitude
Exits shadow 20:21:46 - 165° (SSE) 2,270 3.8 -9.9°
Reaches altitude 10° 20:22:36 10° 161° (SSE) 1,970 3.4 -10.1°
Maximum altitude 20:26:26 30° 100° (E) 1,116 2.2 -10.6°
Drops below altitude 10° 20:30:17 10° 39° (NE) 1,984 3.9 -11.2°
Sets 20:32:44 0° 29° (NNE) 2,894 4.9 -11.6°
